Powrót do katalogu

STARLINK-31878

AktywnyŁącznośćVLEO
NORAD 60031·PAYLOAD·🇺🇸 United States

Wystrzelony Jun 8, 2024 z Cape Canaveral Space Force Station

Loading…

Następne Przeloty (najbliższe 24 godziny)

TLE

ŚwieżeSource: CelesTrak SupGP

Epoka: Sep 14, 2026, 22:37 UTC

1 60031C 24111R   26257.94284722  .00012464  00000+0  36847-3 0  2573
2 60031  53.1576 221.3912 0001708 111.2061 276.3451 15.34365883    12

Śledź STARLINK-31878 w czasie rzeczywistym z AllMySat

Download on the App Store